sat.trackr.live / text

‹ back to catalog

STARLINK-36452

NORAD 67405 · 2026-005B

PAYLOAD ACTIVE UNKNOWN

§ Identity

Operator
Country
US
Launch date
2026-01-12
Launch site
AFETR
Launch vehicle
Mass (kg)
RCS (m²)

Purposes: comms

External: N2YO · Heavens-Above · Gunter

§ Orbital elements

Epoch: 2026-05-25T01:56:15.339840Z

Period
94.27 min
Inclination
42.9971°
Eccentricity
0.0000721
Mean motion
15.27522807 rev/d
Perigee alt
482.7 km
Apogee alt
483.7 km
Semi-major
6,861.4 km
B*
6.8764e-5
RAAN
166.2116°
Arg perigee
267.7830°
Mean anomaly
92.2939°
Rev number
2,038

§ Raw data

STARLINK-364521 67405U 26005B   26145.08073310  .00001628  00000+0  68764-4 0  99962 67405  42.9971 166.2116 0000721 267.7830  92.2939 15.27522807 20388

JSON: /api/v1/satellites/67405 · /tle

For live sub-satellite position, see the globe view (requires WebGL).

§ Visibility from observer

Set your observer location to see the next 7 days of passes ≥ 10°. The values pass through the URL so the page stays shareable.

No JS? Fill the form by hand. The geolocation button needs JavaScript.